Honolulu, HI

10:34 PM HST on May 26, 2017 (GMT -1000)
Honolulu International

Weather History for PHNL - April, 2012

Change the Weather History Date:

Thursday, April 12, 2012

  Actual Average Record
Temperature  
Mean Temperature 74 °F 76 °F  
Max Temperature 80 °F 83 °F 88 °F (1996)
Min Temperature 67 °F 69 °F 63 °F (1992)
Degree Days  
Heating Degree Days 0 0  
Month to date heating degree days 0 0  
Since 1 July heating degree days 0 0  
Cooling Degree Days 9 11  
Month to date cooling degree days 127 132  
Year to date cooling degree days 968 907  
Growing Degree Days 23 (Base 50)    
Moisture  
Dew Point 64 °F    
Average Humidity 73    
Maximum Humidity 87    
Minimum Humidity 58    
Precipitation  
Precipitation 0.00 in 0.02 in 0.17 in (1998)
Month to date precipitation 0.22 0.36  
Year to date precipitation 7.42 6.68  
Snow  
Snow 0.00 in - - ()
Month to date snowfall 0.0  
Since 1 July snowfall 0.0  
Snow Depth 0.00 in    
Sea Level Pressure  
Sea Level Pressure 30.12 in    
Wind  
Wind Speed 6 mph (NNE)    
Max Wind Speed 18 mph    
Max Gust Speed 23 mph    
Visibility 10 miles    
Events      
T = Trace of Precipitation, MM = Missing Value Source: NWS Daily Summary

Daily Weather History Graph

Daily Weather History Graph

Search for Another Location

Airport or City:

Trip Planner

Search our weather history database for the weather conditions in past years. The results will help you decide how hot, cold, wet, or windy it might be!

Date:

Astronomy

Apr. 12, 2012 Rise Set
Actual Time 6:14 AM HST 6:50 PM HST
Civil Twilight 5:51 AM HST 7:12 PM HST
Nautical Twilight 5:25 AM HST 7:39 PM HST
Astronomical Twilight 4:58 AM HST 8:06 PM HST
Moon 12:23 AM HST (4/12) 11:43 AM HST (4/12)
Length of Visible Light 13h 21m
Length of Day
12h 35m
Waning Gibbous, 56% of the Moon is Illuminated
Apr 12
Waning Gibbous
Apr 13
Last Quarter
Apr 20
New
Apr 28
First Quarter
May 5
Full

Hourly Weather History & Observations

Time (HST) Temp. Heat Index Dew Point Humidity Pressure Visibility Wind Dir Wind Speed Gust Speed Precip Events Conditions
12:53 AM 69.1 °F - 62.1 °F 78% 30.13 in 10.0 mi Calm Calm - N/A   Scattered Clouds
1:53 AM 69.1 °F - 62.1 °F 78% 30.12 in 10.0 mi Calm Calm - N/A   Scattered Clouds
2:53 AM 68.0 °F - 62.1 °F 81% 30.11 in 10.0 mi WNW 4.6 mph - N/A   Partly Cloudy
3:53 AM 68.0 °F - 63.0 °F 84% 30.10 in 10.0 mi Calm Calm - N/A   Partly Cloudy
4:53 AM 66.9 °F - 63.0 °F 87% 30.11 in 10.0 mi NW 3.5 mph - N/A   Scattered Clouds
5:53 AM 66.9 °F - 63.0 °F 87% 30.12 in 10.0 mi North 3.5 mph - N/A   Partly Cloudy
6:53 AM 69.1 °F - 64.0 °F 84% 30.12 in 10.0 mi North 3.5 mph - N/A   Scattered Clouds
7:53 AM 73.9 °F - 64.0 °F 71% 30.13 in 10.0 mi NW 5.8 mph - N/A   Scattered Clouds
8:53 AM 77.0 °F - 63.0 °F 62% 30.14 in 10.0 mi Variable 5.8 mph - N/A   Scattered Clouds
9:53 AM 77.0 °F - 64.0 °F 64% 30.14 in 10.0 mi SE 10.4 mph - N/A   Scattered Clouds
10:53 AM 77.0 °F - 64.0 °F 64% 30.14 in 10.0 mi ESE 13.8 mph - N/A   Mostly Cloudy
11:53 AM 80.1 °F 81.9 °F 64.9 °F 60% 30.12 in 10.0 mi SE 16.1 mph - N/A   Scattered Clouds
12:53 PM 79.0 °F - 64.9 °F 62% 30.11 in 10.0 mi SSE 13.8 mph - N/A   Scattered Clouds
1:53 PM 79.0 °F - 66.0 °F 64% 30.09 in 10.0 mi SSE 12.7 mph - N/A   Scattered Clouds
2:53 PM 78.1 °F - 64.9 °F 64% 30.07 in 10.0 mi SSE 8.1 mph - N/A   Scattered Clouds
3:53 PM 78.1 °F - 64.9 °F 64% 30.07 in 10.0 mi South 9.2 mph - N/A   Mostly Cloudy
4:53 PM 77.0 °F - 64.9 °F 66% 30.07 in 10.0 mi South 6.9 mph - N/A   Mostly Cloudy
5:53 PM 75.9 °F - 64.0 °F 67% 30.08 in 10.0 mi SE 5.8 mph - N/A   Mostly Cloudy
6:53 PM 75.9 °F - 64.0 °F 67% 30.10 in 10.0 mi North 3.5 mph - N/A   Mostly Cloudy
7:53 PM 73.0 °F - 64.9 °F 76% 30.13 in 10.0 mi North 8.1 mph - N/A   Mostly Cloudy
8:53 PM 73.0 °F - 64.9 °F 76% 30.15 in 10.0 mi North 4.6 mph - N/A   Mostly Cloudy
9:53 PM 73.0 °F - 64.9 °F 76% 30.17 in 10.0 mi NNW 5.8 mph - N/A   Mostly Cloudy
10:53 PM 73.0 °F - 66.0 °F 79% 30.17 in 10.0 mi North 3.5 mph - N/A   Overcast
11:53 PM 72.0 °F - 64.9 °F 78% 30.16 in 10.0 mi NNW 5.8 mph - N/A   Partly Cloudy